Regional Weather Roundup
Issued by NWS Northern Indiana

Home | Current Version | Previous Version | Graphics & Text | Print | Product List | Glossary On
Versions: 1 2 3 4 5 6 7 8 9 10 11 12 13 14 15 16 17 18 19 20 21 22 23 24 25 26 27 28 29 30 31 32 33 34 35 36 37 38 39 40 41 42 43 44 45 46 47 48 49 50
000
ASUS43 KIWX 292110
RWRIWX

KIWX WEATHER ROUNDUP
NATIONAL WEATHER SERVICE NORTHERN INDIANA
500 PM EDT WED JUL 29 2015

NOTE: "FAIR" INDICATES FEW OR NO CLOUDS BELOW 12,000 FEET WITH NO
SIGNIFICANT WEATHER AND/OR OBSTRUCTIONS TO VISIBILITY.

* THESE STATIONS ARE NOT UNDER NWS QUALITY CONTROL. THEY ALSO MAY NOT
  REPORT WEATHER SUCH AS PRECIPITATION OR FOG.

INZ001>027-292200-
NORTHERN INDIANA

CITY           SKY/WX    TMP DP  RH WIND       PRES   REMARKS
GARY*          MOSUNNY   86  64  48 NE7       29.96F
VALPARAISO     SUNNY     85  64  49 N8        29.96F
MICHIGAN CITY* SUNNY     82  57  42 NW5       29.96F
LAPORTE*       SUNNY     85  62  46 N8        29.97F
KNOX*          MOSUNNY   84  68  58 N10G17    29.95S
SOUTH BEND     SUNNY     84  59  42 NW13      29.96F
ELKHART*       SUNNY     84  63  48 W12G20    29.96S
GOSHEN         MOSUNNY   84  71  65 NW16      29.93F
MONTICELLO*    MOSUNNY   87  75  69 NW10G16   29.94F HX  96
LOGANSPORT*    PTSUNNY   86  70  58 W9G16     29.95F
ROCHESTER*     MOSUNNY   86  77  74 NW8       29.95S HX  97
WARSAW*        MOSUNNY   86  72  62 NW9G16    29.94S
ANGOLA*        MOSUNNY   88  82  84 NW7       29.93S HX 108
FORT WAYNE     PTSUNNY   88  74  63 W16       29.93F HX  96
HUNTINGTON*    MOSUNNY   87  74  65 W8        29.93S
PERU/GRISSOM   MOSUNNY   88  75  66 W13       29.93F HX  97
MARION*        PTSUNNY   84  73  69 NW8       29.96S HAZE

$$
INZ028>050-292200-
CENTRAL INDIANA

CITY           SKY/WX    TMP DP  RH WIND       PRES   REMARKS
LAFAYETTE      PTSUNNY   86  74  67 W13       29.95F
KOKOMO*        PTSUNNY   88  75  66 NW12      29.95S HX  97
MUNCIE*        PTSUNNY   86  75  69 W10       29.95S HX  95
INDIANAPOLIS   CLOUDY    86  75  69 NW13      29.96S HX  95

$$
MIZ043>046-050>051-056>058-064>065-071>073-077>080-292200-
SOUTHWEST LOWER MICHIGAN

CITY           SKY/WX    TMP DP  RH WIND       PRES   REMARKS
BATTLE CREEK   PTSUNNY   86  65  49 NW18G26   29.94R
BENTON HARBOR  SUNNY     83  64  52 W10       29.95F
COLDWATER*     MOSUNNY   85  71  62 W13       29.93R
HILLSDALE*     MOSUNNY   85  74  70 W10G21    29.93S
HOLLAND        SUNNY     81  62  52 W10G22    29.94F
GRAND RAPIDS   MOSUNNY   85  49  28 W18G28    29.92S
KALAMAZOO      MOSUNNY   84  61  45 NW13G25   29.94R
STURGIS*       PTSUNNY   82  72  69 NW13      29.93S
THREE RIVERS*  FAIR      85  64  49 NW13G22   29.94S

$$
OHZ001>008-015>018-024>025-292200-
NORTHWEST OHIO

CITY           SKY/WX    TMP DP  RH WIND       PRES   REMARKS
WAUSEON*       PTSUNNY   77  77 100 E6        29.93S
DEFIANCE       PTSUNNY   86  75  69 S13       29.90F HX  95
FINDLAY        LGT RAIN  78  74  87 W10       29.92R
TOLEDO EXPRESS LGT RAIN  74  74 100 E5        29.92S FOG
TOLEDO METCALF CLOUDY    81  74  79 NW13      29.92R
LIMA           LGT RAIN  75  73  93 S6        29.94S

$$
AND FOR LAKE MICHIGAN COASTAL AND OPEN LAKE BUOY OBSERVATIONS

STATION/POSITION TEMP    WIND        PRES    VSBY  WAVE
                 AIR SEA DIR/SP/G                  HT/PER
                 (F)     (DEG/KT/KT) (MB)    (MI)  (FT/S)
CALUMET HARBOR    78                   N/A
MICHIGAN CITY     80     340/  5/  6   N/A
BURNS HARBOR      80      40/  5/  6 1015.6F
SAINT JOSEPH      81     200/  4/  5 1015.2F
4 MI NW BRIDGMAN  77 76  330/  4/  6   N/A           1/ 3
MICHIGAN CITY     79 77   CALM  /  2   N/A           1

$$
&&


USA.gov is the U.S. government's official web portal to all federal, state and local government web resources and services.